Regional Weather Roundup
Issued by NWS

Home | Current Version | Previous Version | Graphics & Text | Print | Product List | Glossary Off
Versions: 1 2 3 4 5 6 7 8 9 10 11 12 13 14 15 16 17 18 19 20 21 22 23 24 25 26 27 28 29 30 31 32 33 34 35 36 37 38 39 40 41 42 43 44 45 46 47 48 49 50

000
ASUS43 KMKX 031811
RWRWI

WISCONSIN REGIONAL WEATHER ROUNDUP
NATIONAL WEATHER SERVICE MILWAUKEE/SULLIVAN WI
1200 PM CST SAT DEC 03 2016

NOTE: "FAIR" INDICATES FEW OR NO CLOUDS BELOW 12,000 FEET WITH NO
SIGNIFICANT WEATHER AND/OR OBSTRUCTIONS TO VISIBILITY.

WIZ001-002-006>008-014>016-023>028-031900-
NORTHWEST WISCONSIN

CITY           SKY/WX    TMP DP  RH WIND       PRES   REMARKS
SUPERIOR ARPT  CLOUDY    30  25  83 CALM      30.26F
6HR MIN TEMP:  29; 6HR MAX TEMP:  30;

ASHLAND        CLOUDY    31  25  78 SW6       30.26F WCI  25
6HR MIN TEMP:  30; 6HR MAX TEMP:  31;

HAYWARD        NOT AVBL
SIREN          CLOUDY    30  24  78 SW6       30.26S WCI  24
6HR MIN TEMP:  28; 6HR MAX TEMP:  30;

CUMBERLAND     CLOUDY    28  23  80 CALM      30.25S
RICE LAKE      CLOUDY    30  23  75 CALM      30.26F
6HR MIN TEMP:  29; 6HR MAX TEMP:  30;

CHETEK         CLOUDY    29  25  84 SW3       30.26F
6HR MIN TEMP:  29; 6HR MAX TEMP:  30;

LADYSMITH      CLOUDY    30  26  85 CALM      30.26F
6HR MIN TEMP:  28; 6HR MAX TEMP:  30;

EAU CLAIRE     CLOUDY    30  24  78 VRB3      30.27F
6HR MIN TEMP:  29; 6HR MAX TEMP:  30;

MENOMONIE      CLOUDY    31  24  76 SW3       30.28S
6HR MIN TEMP:  29; 6HR MAX TEMP:  31;

NEW RICHMOND   CLOUDY    30  24  77 SW6       30.27S WCI  24
6HR MIN TEMP:  28; 6HR MAX TEMP:  30;

OSCEOLA        CLOUDY    31  23  72 CALM      30.30F
6HR MIN TEMP:  29; 6HR MAX TEMP:  31;

$$

WIZ003>005-009-010-017-018-031900-
NORTH CENTRAL WISCONSIN

CITY           SKY/WX    TMP DP  RH WIND       PRES   REMARKS
MANITOWISH WTR CLOUDY    28  24  84 CALM      30.21F
6HR MIN TEMP:  26; 6HR MAX TEMP:  28;

ARBOR VITAE    CLOUDY    29  24  81 S3        30.21F
6HR MIN TEMP:  27; 6HR MAX TEMP:  32;

WOODRUFF       CLOUDY    29  24  81 S3        30.21F
6HR MIN TEMP:  27; 6HR MAX TEMP:  32;

RHINELANDER    CLOUDY    28  22  78 CALM      30.22F
6HR MIN TEMP:  27; 6HR MAX TEMP:  28;

EAGLE RIVER    CLOUDY    28  20  71 SW3       30.21F
6HR MIN TEMP:  26; 6HR MAX TEMP:  28;

LAND O LAKES   CLOUDY    29  25  83 CALM      30.22F
6HR MIN TEMP:  28; 6HR MAX TEMP:  29;

PHILLIPS       CLOUDY    28  24  85 SW3       30.22F
6HR MIN TEMP:  26; 6HR MAX TEMP:  28;

TOMAHAWK       CLOUDY    28  20  70 CALM      30.22F
6HR MIN TEMP:  26; 6HR MAX TEMP:  28;

MEDFORD        CLOUDY    28  20  72 W7        30.23S WCI  21
6HR MIN TEMP:  27; 6HR MAX TEMP:  28;

MERRILL        CLOUDY    28  23  79 NW3       30.25F
6HR MIN TEMP:  27; 6HR MAX TEMP:  28;

$$

WIZ029-030-035-036-043>047-031900-
CENTRAL WISCONSIN

CITY           SKY/WX    TMP DP  RH WIND       PRES   REMARKS
WAUSAU         CLOUDY    29  21  72 NW6       30.23F WCI  23
6HR MIN TEMP:  28; 6HR MAX TEMP:  29;

MOSINEE        CLOUDY    28  25  86 NW5       30.25F WCI  23
MARSHFIELD     CLOUDY    29  23  78 W6        30.24F WCI  23
6HR MIN TEMP:  28; 6HR MAX TEMP:  29; 6HR PCP: TRACE;

STEVENS POINT  CLOUDY    29  22  74 W6        30.26S WCI  23
6HR MIN TEMP:  28; 6HR MAX TEMP:  29;

WAUPACA        CLOUDY    33  22  62 CALM      30.27S
6HR MIN TEMP:  32; 6HR MAX TEMP:  33;

WAUTOMA        CLOUDY    32  22  66 VRB3      30.28F
6HR MIN TEMP:  30; 6HR MAX TEMP:  32;

WISC RAPIDS    CLOUDY    30  23  75 W6        30.28S WCI  24
6HR MIN TEMP:  30; 6HR MAX TEMP:  31;

CAMP DOUGLAS   PTSUNNY   32  19  59 NW5       30.27F WCI  27
                                      6HR PCP: TRACE;

$$

WIZ011>013-019>022-031-037>040-048>050-031900-
NORTHEAST WISCONSIN

CITY           SKY/WX    TMP DP  RH WIND       PRES   REMARKS
ANTIGO         CLOUDY    28  21  77 NW7       30.22F WCI  20
6HR MIN TEMP:  26; 6HR MAX TEMP:  28;

SHAWANO        CLOUDY    33  23  66 W6        30.26F WCI  28
6HR MIN TEMP:  32; 6HR MAX TEMP:  33;

OCONTO         CLOUDY    33  25  73 NW6       30.25F WCI  27
6HR MIN TEMP:  32; 6HR MAX TEMP:  33;

STURGEON BAY   CLOUDY    33  26  75 W7        30.25F WCI  27
6HR MIN TEMP:  33; 6HR MAX TEMP:  34;

GREEN BAY      CLOUDY    33  25  72 W7        30.27F WCI  27
6HR MIN TEMP:  33; 6HR MAX TEMP:  34;

MANITOWOC      CLOUDY    33  24  69 MISG      30.28F
6HR MIN TEMP:  32; 6HR MAX TEMP:  33;

APPLETON       CLOUDY    30  21  69 NW5       30.25F WCI  25
CLINTONVILLE   CLOUDY    32  21  64 W7        30.26F WCI  26
OSHKOSH        CLOUDY    32  21  64 W5        30.27S WCI  27
6HR MIN TEMP:  31; 6HR MAX TEMP:  32;

$$

WIZ032>034-041-042-053>061-031900-
SOUTHWEST WISCONSIN

CITY           SKY/WX    TMP DP  RH WIND       PRES   REMARKS
LA CROSSE      CLOUDY    34  23  64 CALM      30.30S
6HR MIN TEMP:  32; 6HR MAX TEMP:  34;

SPARTA         CLOUDY    32  22  66 CALM      30.29R
6HR MIN TEMP:  29; 6HR MAX TEMP:  32;

VIROQUA        CLOUDY    30  24  78 CALM      30.27S
6HR MIN TEMP:  28; 6HR MAX TEMP:  30;

BOSCOBEL       CLOUDY    34  23  64 S6        30.33R WCI  29
6HR MIN TEMP:  32; 6HR MAX TEMP:  34;

PRAIRIE DU CHI CLOUDY    33  23  68 S5        30.32S WCI  28
6HR MIN TEMP:  31; 6HR MAX TEMP:  33;

PLATTEVILLE    CLOUDY    32  26  78 SW8       30.33R WCI  25
6HR MIN TEMP:  30; 6HR MAX TEMP:  32;

$$

WIZ056-057-062-063-064-067-068-031900-
SOUTH CENTRAL WISCONSIN

CITY           SKY/WX    TMP DP  RH WIND       PRES   REMARKS
REEDSBURG      CLOUDY    32  22  65 W5        30.29R WCI  27
6HR MIN TEMP:  28; 6HR MAX TEMP:  32;

BARABOO/DELLS  CLOUDY    31  21  66 N3        30.29R
6HR MIN TEMP:  29; 6HR MAX TEMP:  32;

LONE ROCK      CLOUDY    33  22  63 SW3       30.32R
6HR MIN TEMP:  30; 6HR MAX TEMP:  33;

MINERAL POINT  CLOUDY    34  27  75 W5        30.30R WCI  30
MADISON        CLOUDY    31  22  69 S5        30.30R WCI  26
6HR MIN TEMP:  29; 6HR MAX TEMP:  31; 6HR PCP: TRACE;

MIDDLETON      CLOUDY    33  24  69 CALM      30.31R
6HR MIN TEMP:  31; 6HR MAX TEMP:  33;

WATERTOWN      CLOUDY    31  22  71 W7        30.30R WCI  24
6HR MIN TEMP:  30; 6HR MAX TEMP:  31;

MONROE         CLOUDY    32  25  74 S3        30.31R
JANESVILLE     PTSUNNY   32  25  74 W7        30.32S WCI  26
$$

WIZ051-052-058>065-066-070>072-031900-
SOUTHEAST WISCONSIN

CITY           SKY/WX    TMP DP  RH WIND       PRES   REMARKS
MILWAUKEE      CLOUDY    33  22  63 SW3       30.32R
6HR MIN TEMP:  32; 6HR MAX TEMP:  33;

WAUKESHA       CLOUDY    28  21  74 NW7       30.31R WCI  21
MILWAUKEE/TIMM CLOUDY    32  21  64 W5        30.31S WCI  27
RACINE         CLOUDY    32  22  66 W6        30.34R WCI  26
6HR MIN TEMP:  31; 6HR MAX TEMP:  32;

BURLINGTON     CLOUDY    31  22  69 CALM      30.32S
6HR MIN TEMP:  31; 6HR MAX TEMP:  32;

KENOSHA        CLOUDY    32  23  69 W5        30.33R WCI  27
6HR MIN TEMP:  31; 6HR MAX TEMP:  32;

FOND DU LAC    CLOUDY    32  20  61 W3        30.28F
6HR MIN TEMP:  31; 6HR MAX TEMP:  32; 6HR PCP: TRACE;

SHEBOYGAN      CLOUDY    32  24  72 W9        30.28F WCI  24
6HR MIN TEMP:  31; 6HR MAX TEMP:  32;

WEST BEND      CLOUDY    32  23  69 NW3       30.29R
JUNEAU         CLOUDY    30  22  71 W9        30.30R WCI  22
6HR MIN TEMP:  29; 6HR MAX TEMP:  30;

$$

LSZ147-162-031900-
LAKE SUPERIOR

STATION/POSITION TIME  TEMP    WIND        PRES    WAVE
                       AIR SEA DIR/SP/G            HT/PER
                 (UTC) (F)     (DEG/KT/KT) (MB)    (FT/S)
DEVILS ISLAND    1800   32     270/  7/  8 1025.2F
PORT WING        1740   31     220/  5/  8 1024.7F
SAXON HARBOR     1740   32     200/  4/  7 1024.4F
$$

LMZ867-665-643>646-031900-
LAKE MICHIGAN

STATION/POSITION TIME  TEMP    WIND        PRES    WAVE
                       AIR SEA DIR/SP/G            HT/PER
                 (UTC) (F)  C1F1C2F2C3F3C4F4C5F5C6F6C7F7C8M1C9M2Ca!



USA.gov is the U.S. government's official web portal to all federal, state and local government web resources and services.